Lincoln, IL

10:28 AM CDT on October 19, 2019 (GMT -0500)
Lincoln

Weather History for KAAA - August, 2019

Change the Weather History Date:

Tuesday, August 20, 2019

  Actual Average (KSPI) Record (KSPI)
Temperature  
Mean Temperature 74 °F -  
Max Temperature 82 °F 84 °F 101 °F (1983)
Min Temperature 67 °F 63 °F 46 °F (1950)
Cooling Degree Days 10    
Growing Degree Days 24 (Base 50)    
Moisture  
Dew Point 71 °F    
Average Humidity 90    
Maximum Humidity 100    
Minimum Humidity 71    
Precipitation  
Precipitation 0.00 in - - ()
Sea Level Pressure  
Sea Level Pressure 30.00 in    
Wind  
Wind Speed 2 mph ()    
Max Wind Speed 15 mph    
Max Gust Speed 36 mph    
Visibility 8.5 miles    
Events Rain , Thunderstorm    
Averages and records for this station are not official NWS values.
T = Trace of Precipitation, MM = Missing Value Source: Averaged Metar Reports

Daily Weather History Graph

Daily Weather History Graph

Search for Another Location

Airport or City:

Astronomy

Aug. 20, 2019 Rise Set
Actual Time 6:13 AM CDT 7:47 PM CDT
Civil Twilight 5:44 AM CDT 8:16 PM CDT
Nautical Twilight 5:09 AM CDT 8:50 PM CDT
Astronomical Twilight 4:33 AM CDT 9:27 PM CDT
Moon 10:35 PM CDT (8/20) 10:51 AM CDT (8/20)
Length of Visible Light 14h 31m
Length of Day
13h 34m
Waning Gibbous, 77% of the Moon is Illuminated
Aug 20
Waning Gibbous
Aug 23
Last Quarter
Aug 30
New
Sep 5
First Quarter
Sep 13
Full

Hourly Weather History & Observations

Time (CDT) Temp. Heat Index Dew Point Humidity Pressure Visibility Wind Dir Wind Speed Gust Speed Precip Events Conditions
12:15 AM 75.2 °F - 75.0 °F 99% 30.02 in 10.0 mi Calm Calm - N/A   Clear
12:35 AM 74.8 °F - 74.5 °F 99% 30.02 in 7.0 mi South 4.6 mph - N/A   Clear
12:55 AM 75.2 °F - 74.7 °F 98% 30.02 in 10.0 mi Calm Calm - N/A   Clear
1:15 AM 75.0 °F - 74.3 °F 98% 30.02 in 10.0 mi SSW 3.5 mph - N/A   Clear
1:35 AM 74.3 °F - 73.8 °F 98% 30.01 in 7.0 mi South 3.5 mph - N/A   Clear
1:55 AM 73.9 °F - 73.2 °F 98% 30.02 in 7.0 mi SSE 3.5 mph - N/A   Clear
2:15 AM 73.4 °F - 72.9 °F 98% 30.01 in 7.0 mi Calm Calm - N/A   Clear
2:35 AM 72.7 °F - 72.1 °F 98% 30.01 in 7.0 mi Calm Calm - N/A   Clear
2:55 AM 72.0 °F - 71.6 °F 99% 30.01 in 7.0 mi Calm Calm - N/A   Clear
3:15 AM 71.8 °F - 71.6 °F 99% 30.01 in 7.0 mi Calm Calm - N/A   Clear
3:35 AM 71.6 °F - 71.2 °F 99% 30.02 in 7.0 mi Calm Calm - N/A   Clear
3:55 AM 71.1 °F - 70.9 °F 99% 30.02 in 7.0 mi Calm Calm - N/A   Clear
4:15 AM 69.6 °F - 69.4 °F 99% 30.01 in 7.0 mi Calm Calm - N/A   Scattered Clouds
4:35 AM 70.3 °F - 70.3 °F 100% 29.99 in 7.0 mi East 3.5 mph - N/A   Mostly Cloudy
4:55 AM 70.3 °F - 70.2 °F 99% 29.98 in 7.0 mi Calm Calm - N/A   Mostly Cloudy
5:15 AM 70.3 °F - 70.0 °F 99% 29.98 in 7.0 mi Calm Calm - N/A   Mostly Cloudy
5:35 AM 70.7 °F - 70.3 °F 99% 29.98 in 7.0 mi Calm Calm - N/A   Overcast
5:55 AM 71.1 °F - 70.7 °F 99% 29.99 in 7.0 mi Calm Calm - N/A   Scattered Clouds
6:15 AM 71.2 °F - 70.9 °F 99% 29.99 in 7.0 mi Calm Calm - N/A   Scattered Clouds
6:35 AM 71.2 °F - 70.9 °F 99% 29.99 in 5.0 mi SSE 3.5 mph - N/A   Clear
6:55 AM 71.8 °F - 71.6 °F 99% 30.00 in 7.0 mi Calm Calm - N/A   Clear
7:15 AM 72.3 °F - 71.8 °F 98% 30.00 in 7.0 mi Calm Calm - N/A   Scattered Clouds
7:35 AM 72.9 °F - 72.5 °F 99% 30.02 in 7.0 mi Calm Calm - N/A   Mostly Cloudy
7:55 AM 73.6 °F - 73.0 °F 98% 30.02 in 7.0 mi South 3.5 mph - N/A   Mostly Cloudy
8:15 AM 73.8 °F - 73.2 °F 98% 30.03 in 10.0 mi SSE 3.5 mph - N/A   Mostly Cloudy
8:35 AM 73.9 °F - 73.4 °F 98% 30.02 in 7.0 mi Calm Calm - N/A Thunderstorm Scattered Clouds
8:55 AM 74.3 °F - 73.8 °F 98% 30.02 in 7.0 mi SSE 3.5 mph - N/A   Scattered Clouds
9:15 AM 74.7 °F - 74.1 °F 98% 30.03 in 7.0 mi SSE 3.5 mph - N/A   Scattered Clouds
9:35 AM 74.8 °F - 74.3 °F 98% 30.02 in 7.0 mi South 3.5 mph - N/A Thunderstorm Mostly Cloudy
9:55 AM 75.2 °F - 74.7 °F 98% 29.98 in 7.0 mi South 6.9 mph - N/A Thunderstorm Thunderstorm
10:15 AM 67.5 °F - 66.7 °F 98% 30.14 in 0.8 mi NW 15.0 mph 35.7 mph N/A Rain , Thunderstorm Heavy Thunderstorms and Rain
10:35 AM 67.3 °F - 67.1 °F 99% 30.12 in 3.0 mi NW 4.6 mph - N/A Rain , Thunderstorm Thunderstorms and Rain
10:55 AM 68.0 °F - 67.3 °F 98% 30.12 in 10.0 mi NNW 3.5 mph - N/A Rain , Thunderstorm Light Thunderstorms and Rain
11:15 AM 68.9 °F - 67.3 °F 95% 30.13 in 5.0 mi Calm Calm - N/A Rain , Thunderstorm Rain
11:35 AM 68.9 °F - 67.3 °F 95% 30.10 in 3.0 mi South 5.8 mph - N/A Rain , Thunderstorm Heavy Thunderstorms and Rain
11:55 AM 68.5 °F - 67.6 °F 97% 30.07 in 7.0 mi South 6.9 mph - N/A Rain , Thunderstorm Thunderstorms and Rain
12:15 PM 69.1 °F - 67.5 °F 95% 30.03 in 10.0 mi South 6.9 mph - N/A Rain Rain
12:35 PM 70.9 °F - 67.3 °F 88% 29.96 in 10.0 mi South 15.0 mph 23.0 mph N/A Rain Light Rain
12:55 PM 72.1 °F - 67.3 °F 85% 29.96 in 10.0 mi SSW 9.2 mph 17.3 mph N/A Rain Light Rain
1:15 PM 74.7 °F - 67.5 °F 78% 29.97 in 10.0 mi SSW 10.4 mph 16.1 mph N/A   Scattered Clouds
1:35 PM 75.7 °F - 67.5 °F 75% 29.97 in 10.0 mi SSW 6.9 mph - N/A   Scattered Clouds
1:55 PM 76.5 °F - 67.1 °F 73% 29.97 in 10.0 mi SSW 5.8 mph - N/A   Clear
2:15 PM 77.0 °F - 67.1 °F 71% 29.97 in 10.0 mi WSW 5.8 mph - N/A   Clear
2:35 PM 76.6 °F - 67.6 °F 74% 29.98 in 10.0 mi SW 3.5 mph - N/A   Clear
2:55 PM 76.1 °F - 68.4 °F 77% 29.98 in 10.0 mi WSW 8.1 mph - N/A   Scattered Clouds
3:15 PM 76.8 °F - 69.3 °F 77% 29.98 in 10.0 mi West 5.8 mph - N/A   Scattered Clouds
3:35 PM 78.3 °F - 70.3 °F 77% 29.96 in 10.0 mi West 9.2 mph 16.1 mph N/A   Clear
3:55 PM 79.3 °F - 70.7 °F 75% 29.93 in 10.0 mi West 8.1 mph - N/A   Clear
4:15 PM 80.8 °F 84.9 °F 71.8 °F 74% 29.92 in 10.0 mi WNW 5.8 mph - N/A   Clear
4:35 PM 81.5 °F 86.1 °F 72.1 °F 73% 29.91 in 10.0 mi Calm Calm - N/A   Clear
4:55 PM 82.4 °F 87.9 °F 73.0 °F 73% 29.93 in 10.0 mi NW 5.8 mph - N/A   Clear
5:15 PM 82.0 °F 87.0 °F 72.1 °F 72% 29.94 in 10.0 mi NW 6.9 mph - N/A   Clear
5:35 PM 82.4 °F 87.7 °F 72.5 °F 72% 29.94 in 10.0 mi WNW 3.5 mph - N/A   Clear
5:55 PM 82.2 °F 87.6 °F 72.9 °F 73% 29.94 in 10.0 mi NW 3.5 mph - N/A   Clear
6:15 PM 81.7 °F 86.9 °F 73.0 °F 75% 29.94 in 10.0 mi Calm Calm - N/A   Clear
6:35 PM 81.1 °F 86.0 °F 72.9 °F 76% 29.95 in 10.0 mi Calm Calm - N/A   Scattered Clouds
6:55 PM 80.1 °F 84.4 °F 73.2 °F 80% 29.95 in 10.0 mi SSW 3.5 mph - N/A   Clear
7:15 PM 78.6 °F - 73.4 °F 84% 29.96 in 10.0 mi SW 5.8 mph - N/A   Scattered Clouds
7:35 PM 77.9 °F - 73.4 °F 86% 29.96 in 10.0 mi SW 3.5 mph - N/A   Scattered Clouds
7:55 PM 77.5 °F - 73.4 °F 87% 29.96 in 10.0 mi Calm Calm - N/A   Scattered Clouds
8:15 PM 78.1 °F - 73.0 °F 84% 29.97 in 10.0 mi Calm Calm - N/A   Mostly Cloudy
8:35 PM 78.3 °F - 73.0 °F 84% 29.97 in 10.0 mi Calm Calm - N/A   Overcast
8:55 PM 77.0 °F - 73.0 °F 88% 29.97 in 10.0 mi Calm Calm - N/A   Mostly Cloudy
9:15 PM 76.3 °F - 73.0 °F 90% 29.99 in 10.0 mi Calm Calm - N/A   Overcast
9:35 PM 76.1 °F - 72.9 °F 90% 30.00 in 10.0 mi Calm Calm - N/A   Mostly Cloudy
9:55 PM 75.4 °F - 72.5 °F 91% 30.00 in 10.0 mi Calm Calm - N/A   Scattered Clouds
10:15 PM 74.5 °F - 72.1 °F 92% 30.00 in 10.0 mi SW 3.5 mph - N/A   Clear
10:35 PM 74.3 °F - 71.8 °F 92% 30.00 in 10.0 mi Calm Calm - N/A   Clear
10:55 PM 73.6 °F - 71.8 °F 94% 30.00 in 10.0 mi Calm Calm - N/A   Clear
11:15 PM 73.8 °F - 71.6 °F 93% 30.01 in 10.0 mi Calm Calm - N/A   Clear
11:35 PM 73.4 °F - 71.6 °F 94% 30.01 in 10.0 mi Calm Calm - N/A   Clear
11:55 PM 73.6 °F - 71.4 °F 93% 30.00 in 10.0 mi Calm Calm - N/A   Clear